Abilene Dyess, TX

4:19 AM CDT on May 30, 2017 (GMT -0500)
Dyess Air Force Base

Weather History for KDYS - April, 2014

Change the Weather History Date:

Thursday, April 17, 2014

  Actual Average Record
Temperature  
Mean Temperature 58 °F -  
Max Temperature 65 °F 75 °F 102 °F (2006)
Min Temperature 53 °F 53 °F 39 °F (1998)
Degree Days  
Heating Degree Days 6    
Growing Degree Days 8 (Base 50)    
Moisture  
Dew Point 50 °F    
Average Humidity 75    
Maximum Humidity 94    
Minimum Humidity 45    
Precipitation  
Precipitation 0.00 in - - ()
Sea Level Pressure  
Sea Level Pressure 30.05 in    
Wind  
Wind Speed 11 mph (ESE)    
Max Wind Speed 18 mph    
Max Gust Speed 23 mph    
Visibility 10 miles    
Events      
Averages and records for this station are not official NWS values.
T = Trace of Precipitation, MM = Missing Value Source: NWS Daily Summary

Daily Weather History Graph

Daily Weather History Graph

Search for Another Location

Airport or City:

Trip Planner

Search our weather history database for the weather conditions in past years. The results will help you decide how hot, cold, wet, or windy it might be!

Date:

Astronomy

Apr. 17, 2014 Rise Set
Actual Time 7:07 AM CDT 8:10 PM CDT
Civil Twilight 6:42 AM CDT 8:35 PM CDT
Nautical Twilight 6:12 AM CDT 9:06 PM CDT
Astronomical Twilight 5:41 AM CDT 9:37 PM CDT
Moon 10:51 PM CDT (4/17) 8:46 AM CDT (4/17)
Length of Visible Light 13h 53m
Length of Day
13h 02m
Waning Gibbous, 93% of the Moon is Illuminated
Apr 17
Waning Gibbous
Apr 22
Last Quarter
Apr 29
New
May 6
First Quarter
May 14
Full

Hourly Weather History & Observations

Time (CDT) Temp. Dew Point Humidity Pressure Visibility Wind Dir Wind Speed Gust Speed Precip Events Conditions
12:58 AM 59.7 °F 38.1 °F 45% 29.81 in 10.0 mi SE 13.8 mph - N/A   Clear
1:58 AM 59.5 °F 40.1 °F 49% 29.80 in 10.0 mi SE 13.8 mph - N/A   Clear
2:58 AM 56.1 °F 41.2 °F 57% 29.80 in 10.0 mi SSE 16.1 mph - N/A   Clear
3:58 AM 54.7 °F 44.4 °F 68% 29.81 in 10.0 mi SE 11.5 mph - N/A   Clear
4:58 AM 54.3 °F 45.1 °F 71% 29.83 in 10.0 mi East 8.1 mph - N/A   Clear
5:51 AM 53.6 °F 46.4 °F 77% 29.94 in 10.0 mi ESE 11.5 mph - N/A   Overcast
5:58 AM 54.0 °F 46.4 °F 76% 29.86 in 10.0 mi ESE 12.7 mph - N/A   Overcast
6:33 AM 53.6 °F 46.4 °F 77% 29.97 in 10.0 mi East 9.2 mph - N/A   Overcast
6:59 AM 54.3 °F 47.3 °F 77% 29.92 in 10.0 mi East 6.9 mph - N/A   Overcast
7:58 AM 55.4 °F 48.2 °F 77% 29.96 in 10.0 mi East 6.9 mph - N/A   Overcast
8:23 AM 55.4 °F 50.0 °F 82% 30.05 in 10.0 mi East 8.1 mph - N/A   Overcast
8:43 AM 55.4 °F 50.0 °F 82% 30.05 in 9.0 mi East 11.5 mph 18.4 mph N/A   Overcast
8:58 AM 53.6 °F 50.0 °F 88% 29.98 in 9.0 mi East 16.1 mph - N/A   Overcast
9:18 AM 53.6 °F 50.0 °F 88% 30.05 in 10.0 mi East 12.7 mph - N/A   Overcast
9:58 AM 54.9 °F 50.9 °F 86% 30.00 in 10.0 mi East 12.7 mph - N/A   Overcast
10:03 AM 55.4 °F 50.0 °F 82% 30.07 in 10.0 mi ESE 13.8 mph - N/A   Overcast
10:28 AM 55.4 °F 51.8 °F 88% 30.06 in 10.0 mi ESE 17.3 mph - N/A   Overcast
10:53 AM 57.2 °F 51.8 °F 82% 30.08 in 10.0 mi ESE 15.0 mph - N/A   Overcast
10:58 AM 58.3 °F 51.4 °F 78% 30.02 in 10.0 mi ESE 16.1 mph - N/A   Overcast
11:08 AM 59.0 °F 51.8 °F 77% 30.09 in 10.0 mi SE 13.8 mph - N/A   Overcast
11:18 AM 59.0 °F 51.8 °F 77% 30.09 in 10.0 mi ESE 11.5 mph - N/A   Overcast
11:43 AM 59.0 °F 51.8 °F 77% 30.10 in 10.0 mi ESE 12.7 mph - N/A   Overcast
11:58 AM 60.1 °F 51.8 °F 74% 30.04 in 10.0 mi SE 10.4 mph - N/A   Overcast
12:13 PM 60.8 °F 51.8 °F 72% 30.10 in 10.0 mi SSE 9.2 mph - N/A   Overcast
12:48 PM 62.6 °F 51.8 °F 68% 30.10 in 10.0 mi SSE 9.2 mph - N/A   Overcast
12:58 PM 62.4 °F 52.0 °F 69% 30.03 in 10.0 mi SSE 10.4 mph - N/A   Overcast
1:58 PM 63.7 °F 52.0 °F 66% 30.02 in 10.0 mi South 8.1 mph - N/A   Overcast
2:18 PM 64.4 °F 51.8 °F 64% 30.09 in 10.0 mi SSE 8.1 mph - N/A   Overcast
2:38 PM 64.4 °F 51.8 °F 64% 30.09 in 10.0 mi South 8.1 mph - N/A   Overcast
2:43 PM 64.4 °F 51.8 °F 64% 30.09 in 10.0 mi SSE 5.8 mph - N/A   Overcast
2:58 PM 64.4 °F 52.2 °F 64% 30.03 in 10.0 mi South 10.4 mph - N/A   Overcast
3:03 PM 64.4 °F 51.8 °F 64% 30.09 in 10.0 mi South 5.8 mph - N/A   Overcast
3:08 PM 64.4 °F 51.8 °F 64% 30.09 in 10.0 mi SSW 8.1 mph - N/A   Overcast
3:18 PM 64.4 °F 51.8 °F 64% 30.09 in 10.0 mi South 8.1 mph - N/A   Overcast
3:58 PM 64.6 °F 51.8 °F 63% 30.03 in 10.0 mi South 6.9 mph - N/A   Overcast
4:08 PM 64.4 °F 51.8 °F 64% 30.09 in 10.0 mi Variable 2.3 mph - N/A   Overcast
4:13 PM 64.4 °F 51.8 °F 64% 30.09 in 10.0 mi SW 4.6 mph - N/A   Overcast
4:33 PM 64.4 °F 51.8 °F 64% 30.09 in 10.0 mi SSW 4.6 mph - N/A   Overcast
4:58 PM 64.8 °F 52.2 °F 64% 30.04 in 10.0 mi SSW 4.6 mph - N/A   Overcast
5:13 PM 64.4 °F 51.8 °F 64% 30.09 in 10.0 mi Variable 4.6 mph - N/A   Overcast
5:28 PM 64.4 °F 53.6 °F 68% 30.09 in 10.0 mi SSW 5.8 mph - N/A   Overcast
5:58 PM 63.5 °F 52.5 °F 67% 30.05 in 10.0 mi North 16.1 mph 21.9 mph N/A   Overcast
6:13 PM 59.0 °F 51.8 °F 77% 30.11 in 10.0 mi North 16.1 mph 23.0 mph N/A   Mostly Cloudy
6:48 PM 57.2 °F 51.8 °F 82% 30.12 in 10.0 mi NNE 17.3 mph - N/A   Mostly Cloudy
6:53 PM 57.2 °F 51.8 °F 82% 30.12 in 10.0 mi NNE 18.4 mph - N/A   Mostly Cloudy
6:58 PM 57.4 °F 51.3 °F 80% 30.08 in 10.0 mi NNE 16.1 mph - N/A   Mostly Cloudy
7:03 PM 57.2 °F 51.8 °F 82% 30.12 in 10.0 mi NNE 15.0 mph - N/A   Mostly Cloudy
7:33 PM 57.2 °F 51.8 °F 82% 30.13 in 10.0 mi NNE 12.7 mph - N/A   Mostly Cloudy
7:58 PM 56.1 °F 51.6 °F 85% 30.10 in 10.0 mi NNE 10.4 mph - N/A   Mostly Cloudy
8:33 PM 55.4 °F 51.8 °F 88% 30.15 in 10.0 mi NNE 11.5 mph - N/A   Mostly Cloudy
8:58 PM 55.9 °F 52.2 °F 87% 30.12 in 10.0 mi NNE 12.7 mph - N/A   Overcast
9:28 PM 55.4 °F 51.8 °F 88% 30.18 in 10.0 mi NNE 9.2 mph - N/A   Overcast
9:58 PM 55.0 °F 52.0 °F 89% 30.15 in 10.0 mi North 8.1 mph - N/A   Overcast
10:03 PM 55.4 °F 51.8 °F 88% 30.19 in 10.0 mi North 8.1 mph - N/A   Overcast
10:58 PM 54.7 °F 51.3 °F 88% 30.15 in 10.0 mi North 8.1 mph - N/A   Overcast
11:48 PM 53.6 °F 51.8 °F 94% 30.21 in 10.0 mi North 9.2 mph - N/A   Overcast
11:58 PM 54.3 °F 51.3 °F 89% 30.17 in 10.0 mi North 6.9 mph - N/A   Overcast